Regional Weather Roundup
Issued by NWS

Home | Current Version | Previous Version | Text Only | Print | Product List | Glossary Off
Versions: 1 2 3 4 5 6 7 8 9 10 11 12 13 14 15 16 17 18 19 20 21 22 23 24 25 26 27 28 29 30 31 32 33 34 35 36 37 38 39 40 41 42 43 44 45 46 47 48 49 50

000
ASUS43 KMKX 040021
RWRWI

WISCONSIN REGIONAL WEATHER ROUNDUP
NATIONAL WEATHER SERVICE MILWAUKEE/SULLIVAN WI
700 PM CDT THU SEP 03 2015

NOTE: "FAIR" INDICATES FEW OR NO CLOUDS BELOW 12,000 FEET WITH NO
SIGNIFICANT WEATHER AND/OR OBSTRUCTIONS TO VISIBILITY.

WIZ001-002-006>008-014>016-023>028-040100-
NORTHWEST WISCONSIN

CITY           SKY/WX    TMP DP  RH WIND       PRES   REMARKS
SUPERIOR ARPT  CLEAR     60  57  89 NE8       29.96S
6HR MIN TEMP:  59; 6HR MAX TEMP:  64;

ASHLAND        CLEAR     61  61 100 N7        29.97S
6HR MIN TEMP:  61; 6HR MAX TEMP:  72;

HAYWARD        CLEAR     79  65  62 E3        29.94S HX  81
6HR MIN TEMP:  74; 6HR MAX TEMP:  81;

SIREN          CLEAR     79  68  67 E5        29.91S HX  81
6HR MIN TEMP:  77; 6HR MAX TEMP:  83;

CUMBERLAND     CLEAR     75  64  69 SE5       29.93S
RICE LAKE      CLEAR     77  67  69 E5        29.94S
6HR MIN TEMP:  77; 6HR MAX TEMP:  82;

CHETEK         CLEAR     77  69  74 SE5       29.92S
6HR MIN TEMP:  77; 6HR MAX TEMP:  82;

LADYSMITH      CLEAR     78  68  70 SE3       29.96R HX  80
6HR MIN TEMP:  78; 6HR MAX TEMP:  83;

EAU CLAIRE     CLEAR     77  68  73 E10       29.91S
6HR MIN TEMP:  75; 6HR MAX TEMP:  83;

MENOMONIE      CLEAR     79  68  70 E6        29.91S HX  81
6HR MIN TEMP:  78; 6HR MAX TEMP:  83;

NEW RICHMOND   CLEAR     77  68  72 E6        29.91S
6HR MIN TEMP:  77; 6HR MAX TEMP:  82;

OSCEOLA        CLEAR     79  69  71 E6        29.92S HX  81
6HR MIN TEMP:  78; 6HR MAX TEMP:  83;

$$

WIZ003>005-009-010-017-018-040100-
NORTH CENTRAL WISCONSIN

CITY           SKY/WX    TMP DP  RH WIND       PRES   REMARKS
MANITOWISH WTR CLEAR     74  66  76 SE3       29.98S
6HR MIN TEMP:  74; 6HR MAX TEMP:  79;

ARBOR VITAE    CLEAR     77  68  73 CALM      29.99S
6HR MIN TEMP:  77; 6HR MAX TEMP:  80;

WOODRUFF       CLEAR     77  68  73 CALM      29.99S
6HR MIN TEMP:  77; 6HR MAX TEMP:  80;

RHINELANDER    CLEAR     73  64  73 E5        29.99S
6HR MIN TEMP:  73; 6HR MAX TEMP:  79;

EAGLE RIVER    CLEAR     73  62  68 CALM      29.99S
6HR MIN TEMP:  73; 6HR MAX TEMP:  79;

LAND O LAKES   CLEAR     74  64  69 SE3       30.00S
6HR MIN TEMP:  74; 6HR MAX TEMP:  81; 6HR PCP:  0.06;

PHILLIPS       CLEAR     74  65  73 CALM      29.96S
6HR MIN TEMP:  77; 6HR MAX TEMP:  80;

TOMAHAWK       CLEAR     73  64  75 E3        29.98S
6HR MIN TEMP:  73; 6HR MAX TEMP:  81;

MEDFORD        CLEAR     72  67  82 CALM      29.96S
6HR MIN TEMP:  72; 6HR MAX TEMP:  75;

MERRILL        CLEAR     72  66  83 CALM      29.98R
6HR MIN TEMP:  72; 6HR MAX TEMP:  80;

$$

WIZ029-030-035-036-043>047-040100-
CENTRAL WISCONSIN

CITY           SKY/WX    TMP DP  RH WIND       PRES   REMARKS
WAUSAU         CLEAR     74  65  73 SE6       29.95S
6HR MIN TEMP:  72; 6HR MAX TEMP:  79;

MOSINEE        NOT AVBL
MARSHFIELD     CLEAR     75  63  66 E9        29.95F
6HR MIN TEMP:  72; 6HR MAX TEMP:  79;

STEVENS POINT  CLEAR     70  65  83 CALM      29.96F
6HR MIN TEMP:  70; 6HR MAX TEMP:  74;

WAUPACA        CLEAR     74  68  80 CALM      29.95F
6HR MIN TEMP:  74; 6HR MAX TEMP:  78;

WAUTOMA        CLEAR     74  67  78 NE7       29.95S
6HR MIN TEMP:  74; 6HR MAX TEMP:  81;

WISC RAPIDS    CLEAR     75  64  68 E9        29.95F
6HR MIN TEMP:  75; 6HR MAX TEMP:  83;

CAMP DOUGLAS   CLEAR     78  74  86 NE3       29.92R HX  81
6HR MIN TEMP:  78; 6HR MAX TEMP:  84;

$$

WIZ011>013-019>022-031-037>040-048>050-040100-
NORTHEAST WISCONSIN

CITY           SKY/WX    TMP DP  RH WIND       PRES   REMARKS
ANTIGO         CLEAR     71  65  82 E3        29.98S
SHAWANO        NOT AVBL
OCONTO         CLEAR     72  67  84 E3        29.92F
6HR MIN TEMP:  71; 6HR MAX TEMP:  77; 6HR PCP:  0.02;

STURGEON BAY   CLEAR     68  63  83 N5        29.96S
6HR MIN TEMP:  68; 6HR MAX TEMP:  73;

GREEN BAY      CLEAR     73  66  78 NE5       29.94S
6HR MIN TEMP:  73; 6HR MAX TEMP:  79;

MANITOWOC      CLEAR     69  65  86 MISG      29.94S
6HR MIN TEMP:  69; 6HR MAX TEMP:  77;

APPLETON       MOCLDY    72  63  73 NW5       29.94S
CLINTONVILLE   PTCLDY    73  64  73 CALM      29.94S
OSHKOSH        PTCLDY    72  65  78 N6        29.94S
6HR MIN TEMP:  72; 6HR MAX TEMP:  76;

$$

WIZ032>034-041-042-053>061-040100-
SOUTHWEST WISCONSIN

CITY           SKY/WX    TMP DP  RH WIND       PRES   REMARKS
LA CROSSE      PTCLDY    84  71  65 E6        29.87S HX  89
6HR MIN TEMP:  84; 6HR MAX TEMP:  89;

SPARTA         CLEAR     82  68  63 E3        29.91S HX  84
6HR MIN TEMP:  82; 6HR MAX TEMP:  87;

VIROQUA          N/A     79  74  83 E6        29.92S HX  83
6HR MIN TEMP:  79; 6HR MAX TEMP:  89;

BOSCOBEL       PTCLDY    88  75  65 CALM      29.87S HX  97
6HR MIN TEMP:  88; 6HR MAX TEMP:  94;

PRAIRIE DU CHI CLEAR     87  72  60 CALM      29.86S HX  93
6HR MIN TEMP:  85; 6HR MAX TEMP:  90;

PLATTEVILLE    CLEAR     85  75  73 S3        29.90S HX  93
6HR MIN TEMP:  84; 6HR MAX TEMP:  88;

$$

WIZ056-057-062-063-064-067-068-040100-
SOUTH CENTRAL WISCONSIN

CITY           SKY/WX    TMP DP  RH WIND       PRES   REMARKS
REEDSBURG      CLEAR     81  72  73 E5        29.91S HX  85
6HR MIN TEMP:  81; 6HR MAX TEMP:  85;

BARABOO/DELLS  CLEAR     78  67  68 E10       29.92S HX  80
6HR MIN TEMP:  78; 6HR MAX TEMP:  85;

LONE ROCK      CLEAR     81  74  79 E7        29.89S HX  86
6HR MIN TEMP:  81; 6HR MAX TEMP:  91;

MINERAL POINT  CLEAR     86  72  62 CALM      29.91S HX  92
MADISON        MOCLDY    77  68  73 NE12      29.91S
6HR MIN TEMP:  77; 6HR MAX TEMP:  88;

MIDDLETON      PTCLDY    80  70  72 NE7       29.92R HX  82
WATERTOWN      CLEAR     74  70  86 NE7       29.92S
6HR MIN TEMP:  74; 6HR MAX TEMP:  84;

MONROE         PTCLDY    82  72  69 CALM      29.91R THUNDER HX  87
JANESVILLE     MOCLDY    82  73  74 CALM      29.89S HX  88
$$

WIZ051-052-058>065-066-070>072-040100-
SOUTHEAST WISCONSIN

CITY           SKY/WX    TMP DP  RH WIND       PRES   REMARKS
MILWAUKEE      PTCLDY    68  63  84 NE7       29.92S
6HR MIN TEMP:  68; 6HR MAX TEMP:  82;

WAUKESHA       MOCLDY    75  66  73 N7        29.94R
MILWAUKEE/TIMM PTCLDY    73  64  73 E5        29.93R
RACINE         CLEAR     70  64  81 NE9       29.93S
6HR MIN TEMP:  70; 6HR MAX TEMP:  89; 6HR PCP: TRACE;

BURLINGTON     PTCLDY    73  66  80 E9        29.91F
6HR MIN TEMP:  73; 6HR MAX TEMP:  86;

KENOSHA        PTCLDY    72  66  81 NE9       29.92R
6HR MIN TEMP:  72; 6HR MAX TEMP:  90;

FOND DU LAC    PTCLDY    73  66  78 N9        29.94S
6HR MIN TEMP:  73; 6HR MAX TEMP:  77;

SHEBOYGAN      MOCLDY    66  64  93 E8        29.94R
6HR MIN TEMP:  66; 6HR MAX TEMP:  78;

WEST BEND      CLEAR     72  63  73 CALM      29.94S
JUNEAU         CLEAR     73  66  77 N5        29.95S
6HR MIN TEMP:  73; 6HR MAX TEMP:  79; 6HR PCP:  0.02;

$$

LSZ147-162-040100-
LAKE SUPERIOR

STATION/POSITION TIME  TEMP    WIND        PRES    WAVE
                       AIR SEA DIR/SP/G            HT/PER
                 (UTC) (F)     (DEG/KT/KT) (MB)    (FT/S)
W MID LAKE BUOY  2350   59 57   40/  8/  8 1014.9F   0
DEVILS ISLAND    0000   60      70/  7/  7 1014.9F
PORT WING        2300   58      30/ 15/ 17 1014.2
SAXON HARBOR     2300   62        CALM     1014.6S
$$

LMZ867-665-643>646-040100-
LAKE MICHIGAN

STATION/POSITION TIME  TEMP    WIND        PRES    WAVE
                       AIR SEA DIR/SP/G            HT/PER
                 (UTC) (F)     (DEG/KT/KT) (MB)    (FT/S)
CHAMBERS ISLAND  2300   70     360/  3/  4 1013.9S


USA.gov is the U.S. government's official web portal to all federal, state and local government web resources and services.